Regional Weather Roundup
Issued by NWS

Home | Current Version | Previous Version | Graphics & Text | Print | Product List | Glossary On
Versions: 1 2 3 4 5 6 7 8 9 10 11 12 13 14 15 16 17 18 19 20 21 22 23 24 25 26 27 28 29 30 31 32 33 34 35 36 37 38 39 40 41 42 43 44 45 46 47 48 49 50
000
ASUS43 KBIS 020559
RWRND

NORTH DAKOTA REGIONAL WEATHER ROUNDUP
NATIONAL WEATHER SERVICE BISMARCK ND
100 AM CDT THU OCT 02 2014

NOTE: "FAIR" INDICATES FEW OR NO CLOUDS BELOW 12,000 FEET WITH NO
SIGNIFICANT WEATHER AND/OR OBSTRUCTIONS TO VISIBILITY.


NDZ001>003-009>011-017-020700-
NORTHWEST NORTH DAKOTA

CITY           SKY/WX    TMP DP  RH WIND       PRES   REMARKS
WILLISTON      CLEAR     45  41  86 CALM      29.86R
6HR MIN TEMP:  44; 6HR MAX TEMP:  55;

MINOT          MOCLDY    50  44  80 SW10      29.81R
$$

NDZ018>021-031>035-040>046-020700-
SOUTHWEST NORTH DAKOTA

CITY           SKY/WX    TMP DP  RH WIND       PRES   REMARKS
BISMARCK       PTCLDY    49  46  90 W7        29.88R
6HR MIN TEMP:  49; 6HR MAX TEMP:  59;

GARRISON         N/A     46  43  89 W9        29.84S
6HR MIN TEMP:  46; 6HR MAX TEMP:  55;

HETTINGER ARPT CLEAR     39  37  92 NW5       29.93S
$$

NDZ004>008-012>016-024-026-027-054-020700-
NORTHEAST NORTH DAKOTA

CITY           SKY/WX    TMP DP  RH WIND       PRES   REMARKS
GRAND FORKS    CLOUDY    57  49  74 W7        29.77R
DEVILS LAKE    CLEAR     48  43  81 W9        29.77F
$$

NDZ022-023-025-028>030-036>039-047>053-020700-
SOUTHEAST NORTH DAKOTA

CITY           SKY/WX    TMP DP  RH WIND       PRES   REMARKS
FARGO          CLOUDY    59  50  72 W9        29.80R
6HR MIN TEMP:  59; 6HR MAX TEMP:  64;

$$




USA.gov is the U.S. government's official web portal to all federal, state and local government web resources and services.